Terminal Aerodrome Forecast
Issued by NWS

Home | Current Version | Previous Version | Text Only | Print | Product List | Glossary Off
Versions: 1 2 3 4 5 6 7 8 9 10 11 12 13 14 15 16 17 18 19

719
FTUS41 KCLE 281610 AAB
TAFFDY
TAF AMD
KFDY 281610Z 2816/2912 06012KT P6SM SCT008 OVC015
      TEMPO 2816/2820 OVC008
     FM290200 03006KT 5SM BR VCSH OVC009
     FM290500 05006KT 2SM BR OVC005=

USA.gov is the U.S. government's official web portal to all federal, state and local government web resources and services.